COSMOS 1275 DEB, 13807

Orbit data source: Space-Track

COSMOS 1275 DEB, 13807 is space debris in LEO originally from a launch on Thu, 04 Jun 1981 UTC launched from the Plesetsk Missile And Space Complex (PKMTR). Debris objects in space refer to the collection of defunct objects orbiting the Earth. Examples of debris include non-operational satellites, rocket bodies, and fragments generated from explosions, collisions, or faulty payload assembly.

Loading next visibility...
Identifier
13807, 1981-053HB
Orbit
LEO
Country
Flag of CISCIS
Related business
Manufacturer
Unknown
Mission
Spacecraft
Bus & Motor
Unknown
Mass
Unknown
Launch date (UTC)
1981-06-04 (44 years ago)
Launch vehicle
Unknown
Launch site
Plesetsk Missile And Space Complex (PKMTR)
Object type
Payload
Rocket body
Debris
Shape & HBR
Unknown shape, 0.1 m
Radar Cross Section
Small (<0.1 m²)

Expand to show TLE details & history
Last TLE update: 13 hours ago

TLE from 13 hours ago
0 COSMOS 1275 DEB
1 13807U 81053HB  25298.21825187  .00005096  00000-0  19691-2 0  9994
2 13807  82.9494 216.1999 0014349  43.1419 317.0889 14.29948769946045
Epoch: 2025-10-25T05:14Z
TLE epoch observation values (Epoch: 2025-10-25T05:14:16.961Z)
Latitude
-0.00006°
Longitude
103.77727°
Altitude
787.349 km
Speed
7.464 km/s
True Right ascension
14h 24m 47s
True Declination
0° 00' 00"
Sunlit
Object was in daylight at epoch
Visualization orbit readout
Latitude
Unknown
Longitude
Unknown
Altitude
Unknown
Speed
Unknown
Apparent Right ascension
Unknown
Apparent Declination
Unknown
Sunlit
N/A
Visualization observer readout
Local Sidereal Time
13:01:53
Azimuth
Unknown
Elevation
Unknown
Doppler factor
Unknown
Orbital elements
Apogee altitude
799.259 km
Perigee altitude
778.691 km
Semi-major axis
7,167.112 km
Eccentricity
0.00143
Inclination
82.9494°
RAAN
216.1999°
Arg. of periapsis
43.1419°
True anomaly
316.9768°
Mean anomaly
317.0889°
Eccentric anomaly
317.03286°
Mean motion
3.57707 °/min
Orbital period
100.64 mins
BSTAR
0.0019691
Loading maneuver chart data...
Computing Atmospheric mass density...

Documentation

Showing up to 5 results
|